Regional Weather Roundup
Issued by NWS

Home | Current Version | Previous Version | Graphics & Text | Print | Product List | Glossary On
Versions: 1 2 3 4 5 6 7 8 9 10 11 12 13 14 15 16 17 18 19 20 21 22 23 24 25 26 27 28 29 30 31 32 33 34 35 36 37 38 39 40 41 42 43 44 45 46 47 48 49 50
000
ASUS45 KSLC 041010
RWRUT

UTAH REGIONAL WEATHER ROUNDUP
NATIONAL WEATHER SERVICE SALT LAKE CITY UT
400 AM MDT SAT JUL 04 2015

UTZ001>011-023>025-041100-

NORTHERN UTAH

CITY           SKY/WX    TMP DP  RH WIND       PRES   REMARKS
BRIGHAM CITY   MOCLDY    78  51  39 CALM      29.91F
HILL AFB       MOCLDY    75  46  35 E16       29.95S
LOGAN          CLEAR     65  55  70 CALM      29.94S
OGDEN          MOCLDY    75  46  35 S8        29.92R
PROVO AIRPORT  MOCLDY    70  48  46 SE3       29.95S
SALT LAKE CITY MOCLDY    82  49  31 SE8       29.90R
VERNAL         PTCLDY    68  48  48 SW6       30.00R
WENDOVER       PTCLDY    84  45  24 NE7       29.92S
HEBER CITY     PTCLDY    59  48  67 CALM      30.07S
WEST JORDAN    CLEAR     77  46  33 CALM      29.94F

$$

UTZ012>022-026-027-041100-

SOUTHERN/CENTRAL UTAH

CITY           SKY/WX    TMP DP  RH WIND       PRES   REMARKS
BLANDING       CLOUDY    65  51  60 NE6       30.21R
BRYCE CANYON   CLOUDY    61  51  70 W3        30.26R
CEDAR CITY     CLOUDY    75  45  34 S7        30.08R
DELTA          PTCLDY    75  41  29 CALM      29.97R
HANKSVILLE     MOCLDY    79  48  34 W7        29.99S
MILFORD        CLOUDY    78  48  34 S10       29.99S
MOAB/CYNLANDS  CLEAR     77  54  44 SE15      29.99R
PRICE          PTCLDY    74  36  25 E8        30.08R
ST GEORGE      MOSUNNY   86  54  32 SE18      29.89S
KANAB          CLOUDY    73  57  56 CALM      30.10F

$$

REGIONAL REPORTS     COLORADO/ARIZONA

CITY           SKY/WX    TMP DP  RH WIND       PRES   REMARKS
CRAIG, CO      PTCLDY    54  45  71 CALM      30.11S
GRAND JUNCTION MOCLDY    74  50  42 E15       30.03R
RIFLE          MOCLDY    62  54  74 SE3       30.11R
MONTROSE       PTCLDY    65  47  52 S8        30.14F
CORTEZ         CLEAR     59  51  75 NE6       30.17R
PAGE, AZ       CLOUDY    78  55  44 SE14G21   30.01S
GRAND CANYON   LGT RAIN  62  55  77 CALM      30.19F
KINGMAN        CLOUDY    83  51  33 SE7       29.94F
FLAGSTAFF      CLOUDY    58  57  97 NE7       30.22S

$$

REGIONAL REPORTS    NEVADA/IDAHO/WYOMING

CITY           SKY/WX    TMP DP  RH WIND       PRES   REMARKS
LAS VEGAS, NV  MOCLDY    95  30  10 S14       29.75S
ELY            MOCLDY    59  48  67 S6        30.12S
ELKO           CLEAR     61  54  77 NE3       30.02F
POCATELLO, ID  CLEAR     64  55  72 S6        29.94S
BURLEY         PTCLDY    68  49  50 SW8       29.90S
EVANSTON, WY   PTCLDY    64  42  44 SE9       30.16S
ROCK SPRINGS   CLEAR     64  40  41 SW7       30.12S
KEMMERER       PTCLDY    59  45  58 NW3       30.17F

$$


USA.gov is the U.S. government's official web portal to all federal, state and local government web resources and services.